Regional Weather Roundup
Issued by NWS

Home | Current Version | Previous Version | Text Only | Print | Product List | Glossary On
Versions: 1 2 3 4 5 6 7 8 9 10 11 12 13 14 15 16 17 18 19 20 21 22 23 24 25 26 27 28 29 30 31 32 33 34 35 36 37 38 39 40 41 42 43 44 45 46 47 48 49 50
000
ASUS43 KFSD 231910
RWRSD

WEATHER ROUNDUP FOR SOUTH DAKOTA
NATIONAL WEATHER SERVICE SIOUX FALLS SD
200 PM CDT MON APR 23 2018

NOTE: "FAIR" INDICATES FEW OR NO CLOUDS BELOW 12,000 FEET WITH NO
SIGNIFICANT WEATHER AND/OR OBSTRUCTIONS TO VISIBILITY.


SDZ001>005-009-010-012>017-232000-
NORTHWEST AND NORTH CENTRAL SOUTH DAKOTA

CITY           SKY/WX    TMP DP  RH WIND       PRES   REMARKS
BUFFALO          N/A     62  37  39 E26G35    30.03
FAITH            N/A     65  40  39 SE16      30.08F
MOBRIDGE       SUNNY     69  41  36 S12       30.10F
$$

SDZ012>016-024>037-041>051-057-063-072>074-232000-
SOUTHWEST AND SOUTH CENTRAL SOUTH DAKOTA

CITY           SKY/WX    TMP DP  RH WIND       PRES   REMARKS
RAPID CTY ARPT SUNNY     64  40  41 SE10G23   30.04F
PIERRE         MOSUNNY   67  41  38 S13G23    30.10F
CUSTER         MOSUNNY   54  36  50 E14       30.07F
PHILIP         SUNNY     68  41  37 SE13      30.06F
PINE RIDGE     SUNNY     66  40  38 S13G20    30.04F
SPEARFISH      FAIR      63  41  45 E26G35    30.03F
WINNER         MOCLDY    66  39  37 SE13      30.12F
$$

SDZ004>011-016>023-039-040-232000-
NORTHEAST SOUTH DAKOTA

CITY           SKY/WX    TMP DP  RH WIND       PRES   REMARKS
ABERDEEN       MOSUNNY   71  37  28 MISG      30.15F
WATERTOWN      SUNNY     65  35  33 VRB7      30.16F
BROOKINGS      SUNNY     65  37  35 VRB5      30.17F
SISSETON         N/A     69  38  32 VRB3      30.14F
$$

SDZ017-020-022-023-036>040-048>070-232000-
SOUTHEAST SOUTH DAKOTA

CITY           SKY/WX    TMP DP  RH WIND       PRES   REMARKS
SIOUX FALLS    MOSUNNY   68  34  28 SE10      30.16F
HURON          SUNNY     67  39  35 S9        30.14F
CHAMBERLAIN    MOSUNNY   69  40  35 SE12      30.13F
MITCHELL       SUNNY     68  39  34 SE5       30.15F
YANKTON        SUNNY     68  37  32 SE9       30.15F
$$

ABBREVIATIONS USED IN REMARKS
   TC - TEMPERATURE IN CELSIUS
  WCI - WIND CHILL INDEX
   HX - HEAT INDEX
  VSB - VISIBILITY





USA.gov is the U.S. government's official web portal to all federal, state and local government web resources and services.